{"data":{"norad_id":57369,"epoch":"2026-09-20T14:04:38.634528Z","epoch_age_seconds":116846,"freshness":"FRESH","line1":"1 57369U 23099AT  26263.58655827  .00030639  00000+0  91917-3 0  9998","line2":"2 57369  43.0001 217.7936 0006652 160.4523 199.6587 15.33885941176045","mean_motion":15.33885941,"eccentricity":0.0006652,"inclination_deg":43.0001,"raan_deg":217.7936,"arg_perigee_deg":160.4523,"mean_anomaly_deg":199.6587,"bstar":0.00091917,"rev_number":17604,"period_min":93.879209758009,"perigee_km":459.6800150155,"apogee_km":468.78310214584,"semimajor_km":6842.3685585807,"source":"CELESTRAK","updated_at":"2026-09-21T09:00:33.604498Z"}}